Tracking 19490 objects as of 24-Jan-2019
HD Live streaming from Space Station
objects crossing your sky now

AL FARABI 2

Track AL FARABI 2 now!
10-day predictions


NORAD ID: 43805
Int'l Code: 2018-099AZ
Perigee: 577.2 km
Apogee: 600.7 km
Inclination: 97.8 °
Period: 96.3 minutes
Semi major axis: 6959 km
RCS: Unknown
Launch date: December 3, 2018
Source: (TBD)
Launch site: AIR FORCE WESTERN TEST RANGE (AFWTR)
aabbcc
Your satellite tracking list
Your tracking list is empty




NASA's NSSDC Master Catalog

Two Line Element Set (TLE):
1 43805U 18099AZ  19023.68039194  .00000792  00000-0  77216-4 0  9997
2 43805  97.7597  97.3215 0016912  96.7133 263.6013 14.95189103  7617
Source of the keplerian elements: AFSPC